Weather in Le Cannet

France     43°34′24″N   7°00′58″E
temp.,
°C
wind,
m/s
gust,
m/s
humid.,
%
clouds,
%
prec.,
mm/h
press.,
hPa
HPBL,
m
10 may, mon
mon1023:00+18ene6968100 0.0 1015148
02:00+17ene9166994 0.0 1014413
05:00+16ene11177490 0.0 1013450
08:00+17ene111776100 0.0 1013509
11:00+17ene101476100 0.1 1014455
14:00+17e101577100 0.1 1013502
17:00+16ese4887100 2.8 1013297
20:00+15ene7995100 11.0 1013447
11 may, tue
tue1123:00+15e469699 0.6 1013328
02:00+15sse6891100 5.1 1012308
05:00+15s568890 2.4 1011418
08:00+15sse4589100 4.4 1011419
11:00+15s3483100 3.4 1010422
14:00+16ese11777 5.8 1009276
17:00+16e327513 1.0 1008437
20:00+15ne44843 1.7 1007245
12 may, wed
wed1223:00+15ne11874 0.1 1007138
02:00+13wnw228513 0.1 1007131
05:00+13w227926 0.0 1007108
08:00+13wnw337214 0.0 1007149
11:00+16wsw34560 0.0 1006463
14:00+20wsw1011420 0.0 1004783
17:00+20w1013411 0.0 1004726
20:00+18w1014500 0.0 1004630
13 may, thu
thu1323:00+15wnw67574 0.0 1004214
02:00+15ene24768 0.0 1004248
05:00+13w326886 0.0 1004124
08:00+14wnw225633 0.0 1004136
11:00+16sse22502 0.0 1004348
14:00+17e43550 0.0 1004370
17:00+17ene54671 0.0 1003359
20:00+16e33713 0.0 1004151
14 may, fri
fri1423:00+15e33780 0.0 1006123
02:00+15ne237940 0.0 1006346
05:00+14w2280100 0.0 1007165
08:00+14w217293 0.0 1007172
11:00+16ssw336019 0.0 1009574
14:00+16ssw86635 0.0 1009528
17:00+16ssw8966100 0.0 1010595
20:00+15ssw457777 0.0 1011552